TimeAKST,TemperatureF,Dew PointF,Humidity,Sea Level PressureIn,VisibilityMPH,Wind Direction,Wind SpeedMPH,Gust SpeedMPH,PrecipitationIn,Events,Conditions,WindDirDegrees,DateUTC
12:16 AM,33.8,33.8,100,29.80,10.0,West,9.2,-,N/A,,Mostly Cloudy,260,2013-01-13 09:16:00
12:36 AM,35.6,33.8,93,29.80,10.0,West,6.9,-,0.01,,Scattered Clouds,260,2013-01-13 09:36:00
12:56 AM,35.6,33.8,93,29.81,10.0,WSW,5.8,-,0.01,,Scattered Clouds,240,2013-01-13 09:56:00
1:16 AM,35.6,33.8,93,29.80,10.0,Calm,Calm,-,0.01,,Partly Cloudy,0,2013-01-13 10:16:00
1:36 AM,33.8,33.8,100,29.81,8.0,Calm,Calm,-,0.01,,Mostly Cloudy,0,2013-01-13 10:36:00
1:56 AM,33.8,33.8,100,29.82,10.0,WNW,6.9,-,0.01,,Overcast,290,2013-01-13 10:56:00
2:16 AM,35.6,33.8,93,29.84,10.0,West,4.6,-,N/A,,Mostly Cloudy,270,2013-01-13 11:16:00
2:36 AM,33.8,33.8,100,29.84,8.0,WSW,4.6,-,N/A,,Partly Cloudy,250,2013-01-13 11:36:00
2:56 AM,33.8,33.8,100,29.86,10.0,West,4.6,-,N/A,,Clear,260,2013-01-13 11:56:00
3:16 AM,33.8,33.8,100,29.85,10.0,Calm,Calm,-,N/A,,Mostly Cloudy,0,2013-01-13 12:16:00
3:36 AM,33.8,33.8,100,29.85,9.0,Calm,Calm,-,N/A,,Overcast,0,2013-01-13 12:36:00
3:56 AM,33.8,33.8,100,29.85,7.0,Calm,Calm,-,N/A,,Overcast,0,2013-01-13 12:56:00
4:16 AM,33.8,33.8,100,29.84,10.0,ENE,3.5,-,N/A,,Overcast,70,2013-01-13 13:16:00
4:36 AM,33.8,33.8,100,29.85,10.0,NE,3.5,-,N/A,,Overcast,50,2013-01-13 13:36:00
4:56 AM,33.8,33.8,100,29.84,5.0,Calm,Calm,-,N/A,,Overcast,0,2013-01-13 13:56:00
5:16 AM,33.8,33.8,100,29.84,10.0,Calm,Calm,-,N/A,,Overcast,0,2013-01-13 14:16:00
5:36 AM,33.8,33.8,100,29.83,5.0,West,5.8,-,N/A,,Overcast,260,2013-01-13 14:36:00
5:56 AM,33.8,33.8,100,29.84,10.0,Calm,Calm,-,N/A,,Overcast,0,2013-01-13 14:56:00
6:16 AM,33.8,33.8,100,29.85,10.0,Calm,Calm,-,N/A,,Overcast,0,2013-01-13 15:16:00
6:36 AM,33.8,33.8,100,29.85,10.0,Calm,Calm,-,N/A,,Overcast,0,2013-01-13 15:36:00
6:56 AM,33.8,33.8,100,29.85,10.0,Calm,Calm,-,N/A,,Overcast,0,2013-01-13 15:56:00
7:16 AM,33.8,33.8,100,29.85,10.0,West,3.5,-,N/A,,Overcast,270,2013-01-13 16:16:00
7:36 AM,33.8,32.0,93,29.85,10.0,Calm,Calm,-,N/A,,Overcast,0,2013-01-13 16:36:00
7:56 AM,33.8,33.8,100,29.85,7.0,Calm,Calm,-,N/A,,Overcast,0,2013-01-13 16:56:00
8:16 AM,33.8,32.0,93,29.84,4.0,Calm,Calm,-,N/A,,Overcast,0,2013-01-13 17:16:00
8:36 AM,33.8,32.0,93,29.83,10.0,Calm,Calm,-,N/A,,Overcast,0,2013-01-13 17:36:00
8:56 AM,33.8,33.8,100,29.83,10.0,East,3.5,-,N/A,,Overcast,100,2013-01-13 17:56:00
9:16 AM,33.8,33.8,100,29.82,10.0,East,5.8,-,N/A,,Overcast,100,2013-01-13 18:16:00
9:36 AM,33.8,33.8,100,29.82,10.0,NNE,3.5,-,N/A,,Overcast,30,2013-01-13 18:36:00
9:56 AM,33.8,33.8,100,29.81,10.0,Calm,Calm,-,N/A,,Overcast,0,2013-01-13 18:56:00
10:16 AM,33.8,33.8,100,29.81,10.0,Calm,Calm,-,N/A,,Overcast,0,2013-01-13 19:16:00
10:36 AM,35.6,33.8,93,29.82,10.0,Calm,Calm,-,N/A,,Overcast,0,2013-01-13 19:36:00
10:56 AM,33.8,32.0,93,29.83,9.0,West,6.9,-,N/A,,Mostly Cloudy,260,2013-01-13 19:56:00
11:16 AM,33.8,33.8,100,29.82,5.0,Calm,Calm,-,N/A,,Mostly Cloudy,0,2013-01-13 20:16:00
11:36 AM,33.8,32.0,93,29.80,3.0,WSW,3.5,-,N/A,,Scattered Clouds,250,2013-01-13 20:36:00
11:56 AM,33.8,33.8,100,29.80,1.5,West,3.5,-,N/A,,Scattered Clouds,270,2013-01-13 20:56:00
12:16 PM,33.8,33.8,100,29.79,1.0,Calm,Calm,-,N/A,,Overcast,0,2013-01-13 21:16:00
12:36 PM,33.8,33.8,100,29.78,1.2,Calm,Calm,-,N/A,,Overcast,0,2013-01-13 21:36:00
12:56 PM,33.8,33.8,100,29.77,1.0,Calm,Calm,-,N/A,,Overcast,0,2013-01-13 21:56:00
1:16 PM,33.8,33.8,100,29.76,1.0,Calm,Calm,-,N/A,,Overcast,0,2013-01-13 22:16:00
1:36 PM,33.8,33.8,100,29.74,1.2,Calm,Calm,-,N/A,,Scattered Clouds,0,2013-01-13 22:36:00
1:56 PM,33.8,33.8,100,29.73,1.0,Calm,Calm,-,0.01,,Mostly Cloudy,0,2013-01-13 22:56:00
2:16 PM,33.8,33.8,100,29.72,1.0,NE,4.6,-,0.01,,Mostly Cloudy,40,2013-01-13 23:16:00
2:36 PM,35.6,35.6,100,29.71,6.0,Calm,Calm,-,0.03,,Scattered Clouds,0,2013-01-13 23:36:00
2:56 PM,35.6,33.8,93,29.70,7.0,Calm,Calm,-,0.05,,Mostly Cloudy,0,2013-01-13 23:56:00
3:16 PM,37.4,37.4,100,29.69,8.0,Calm,Calm,-,0.01,,Mostly Cloudy,0,2013-01-14 00:16:00
3:36 PM,37.4,37.4,100,29.67,10.0,Calm,Calm,-,0.03,,Mostly Cloudy,0,2013-01-14 00:36:00
3:56 PM,35.6,33.8,93,29.66,1.0,West,5.8,-,0.04,,Mostly Cloudy,260,2013-01-14 00:56:00
4:16 PM,35.6,33.8,93,29.65,0.8,West,5.8,-,N/A,,Unknown,260,2013-01-14 01:16:00
4:36 PM,33.8,33.8,100,29.65,0.5,WSW,6.9,-,0.02,,Unknown,240,2013-01-14 01:36:00
4:56 PM,33.8,32.0,93,29.64,1.5,West,5.8,-,0.02,,Clear,270,2013-01-14 01:56:00
5:16 PM,35.6,35.6,100,29.63,2.5,WSW,4.6,-,0.01,,Clear,250,2013-01-14 02:16:00
5:36 PM,35.6,35.6,100,29.64,4.0,West,4.6,-,0.02,,Clear,260,2013-01-14 02:36:00
5:56 PM,33.8,33.8,100,29.64,0.8,West,4.6,-,0.03,,Unknown,270,2013-01-14 02:56:00
6:16 PM,33.8,33.8,100,29.65,1.5,West,4.6,-,0.02,,Unknown,270,2013-01-14 03:16:00
6:36 PM,35.6,33.8,93,29.64,3.0,West,3.5,-,0.02,,Clear,260,2013-01-14 03:36:00
6:56 PM,35.6,33.8,93,29.64,1.2,Calm,Calm,-,0.02,,Clear,0,2013-01-14 03:56:00
7:16 PM,35.6,33.8,93,29.64,0.8,Calm,Calm,-,N/A,,Unknown,0,2013-01-14 04:16:00
7:36 PM,33.8,33.8,100,29.64,1.0,Calm,Calm,-,0.01,,Unknown,0,2013-01-14 04:36:00
7:56 PM,35.6,33.8,93,29.64,1.8,Calm,Calm,-,0.02,,Unknown,0,2013-01-14 04:56:00
8:36 PM,33.8,32.0,93,29.63,1.5,Calm,Calm,-,N/A,,Clear,0,2013-01-14 05:36:00
8:56 PM,33.8,33.8,100,29.63,0.8,Calm,Calm,-,N/A,,Unknown,0,2013-01-14 05:56:00
9:16 PM,33.8,33.8,100,29.62,0.8,Calm,Calm,-,N/A,,Unknown,0,2013-01-14 06:16:00
9:36 PM,33.8,33.8,100,29.62,0.8,Calm,Calm,-,N/A,,Mostly Cloudy,0,2013-01-14 06:36:00
10:16 PM,33.8,33.8,100,29.62,1.0,West,3.5,-,N/A,,Overcast,260,2013-01-14 07:16:00
10:36 PM,33.8,33.8,100,29.60,0.8,Calm,Calm,-,N/A,,Mostly Cloudy,0,2013-01-14 07:36:00
10:56 PM,33.8,33.8,100,29.61,0.8,West,4.6,-,N/A,,Unknown,280,2013-01-14 07:56:00
11:16 PM,33.8,32.0,93,29.61,1.5,West,5.8,-,N/A,,Clear,260,2013-01-14 08:16:00
11:36 PM,33.8,33.8,100,29.60,1.0,West,5.8,-,N/A,,Clear,280,2013-01-14 08:36:00
11:56 PM,33.8,33.8,100,29.60,1.5,West,6.9,-,N/A,,Clear,260,2013-01-14 08:56:00